COSMOS 1828

Satellite information

Favourite Embed

Satellite Type and Status

PAYLOADIN ORBIT

Key statistics

Satellite COSMOS 1828 at a glance.

Uptime

13998

Days in orbit

Revolutions

≈ 12.7

Per day

Orbit

LEO

Low Earth Orbit

Inclination

82.6

Latest

Satellite identification and parameters

Extended collection of information and parameters for COSMOS 1828.

Object identification

Identified? True

Debris? False

Object name: COSMOS 1828

International designator: 1987-026B

Object number (NORAD): 17583

Object ID (CCSDS): 17583

Country: COMMONWEALTH OF INDEPENDENT STATES (CIS)

Current information (Y/N): Y

RCS size: LARGE

Orbital parameters

Period: 113.721 minutes

Inclination: 82.5661 deg

SMA: 7775.351 km

Apoapsis: 1412.394 km

Periapsis: 1382.038 km

RAAN: 27.0418 deg

Eccentricy: 0.0019521

Argument of periapsis: 132.6682 deg

Mean anomaly: 238.7488 deg

Mean motion: 12.6625961 rev/day

Mean motion (dot): 0.00000038 rev/day2

B* drag term: 0.0001443 1/REarth

Two-line elements (TLE)

Creation date: July 9, 2025, 2:22 a.m.

Reference frame: TEME

Reference center: EARTH

Epoch: July 8, 2025, 6:59 p.m. UTC

TLE line 0: 0 COSMOS 1828

TLE line 1: 1 17583U 87026B 25189.79135883 .00000038 00000-0 14430-3 0 9992

TLE line 2: 2 17583 82.5661 27.0418 0019521 132.6682 238.7488 12.66259610771083

Live tracking on map

Real-time ground track for satellite COSMOS 1828.

In-orbit conjunctions

There are no conjunctions computed for COSMOS 1828, at the moment. Check back to stay up to date, as we update our databases every day.

Go to all conjunctions

Associated space launch

Second generation store-dump military communications satellite

COSMOS 1828 was lifted into orbit during the mission ‘Tsiklon-3 | Strela-3 19 to 24’, on board a Tsiklon-3 space rocket.

The launch took place on March 13, 1987, 1:11 p.m. from 32/2.

For more information about the launch, click the button.

Launch to space Tsiklon-3 | Strela-3 19 to 24
Tsiklon-3 | Strela-3 19 to 24

Agency: N/A

Status: Launch Successful

Launch date: March 13, 1987, 1:11 p.m. UTC

Rocket: Tsiklon-3

Launch pad: 32/2

Location: Plesetsk Cosmodrome, Russian Federation

...

Latest news about this satellite

There are no fresh news available about this satellite. Check back as we update our databases every day.


Newsletter sign-up

Weekly statistics, charts and insights to help you stay on top of the space industry.